Weather observations for the past three days for
Bermuda
Imperial (Metric)
Date Time (adt) Wind (mph) Vis. (mi.) Weather Sky Cond. Temperature (ºF) Relative Humidity Wind Chill (°F) Heat Index (°F) Pressure Precipitation (in)
Air Dwpt 6 hour altimeter (in) sea level (mb) 1 hr 3 hr 6 hr
Max. Min.
31 05:55 SW 5 0.00 Showers in Vicinity FEW021TCU SCT083 SCT300 80.6 75.2 84% 86 0 0.0
31 04:55 S 5 0.00 Showers in Vicinity SCT019TCU SCT300 82.4 75.2 79% 89 0 0.0
31 03:55 S 2 0.00 Showers in Vicinity FEW023 82.4 75.2 79% 89 0 0.0
31 02:55 S 2 0.00 Showers in Vicinity FEW021 82.4 75.2 79% 89 0 0.0
31 01:55 S 5 0.00 A Few Clouds FEW022 82.4 75.2 79% 89 0 0.0
31 00:55 S 7 0.00 Partly Cloudy SCT022 82.4 75.2 79% 89 0 0.0
30 23:55 S 7 0.00 Showers in Vicinity SCT019 82.4 75.2 79% 89 0 0.0
30 22:55 S 8 0.00 Partly Cloudy SCT022 SCT300 82.4 75.2 79% 89 0 0.0
30 21:55 S 6 0.00 Partly Cloudy FEW023 SCT300 82.4 75.2 79% 89 0 0.0
30 20:55 SE 6 0.00 Partly Cloudy FEW023 SCT300 82.4 75.2 79% 89 0 0.0
30 19:55 SE 6 0.00 Mostly Cloudy FEW023 BKN300 84.2 75.2 74% 92 0 0.0
30 18:55 S 5 0.00 Showers in Vicinity FEW024TCU BKN300 84.2 75.2 74% 92 0 0.0
30 17:55 S 6 0.00 Showers in Vicinity FEW025TCU FEW050 BKN300 86 75.2 70% 95 0 0.0
30 16:55 SE 6 0.00 Showers in Vicinity SCT030TCU SCT055 BKN300 86 75.2 70% 95 0 0.0
30 15:55 SE 6 0.00 Mostly Cloudy FEW030 FEW055 BKN300 86 75.2 70% 95 0 0.0
30 14:55 S 7 0.00 Showers in Vicinity FEW030TCU SCT300 87.8 75.2 66% 98 0 0.0
30 13:55 S 7 0.00 Partly Cloudy FEW026 SCT300 86 75.2 70% 95 0 0.0
30 12:55 SE 8 0.00 Partly Cloudy FEW025 SCT300 87.8 75.2 66% 98 0 0.0
30 11:55 S 7 0.00 Partly Cloudy FEW025 SCT080 SCT300 87.8 75.2 66% 98 0 0.0
30 10:55 SE 9 0.00 Showers in Vicinity FEW023 SCT300 86 75.2 70% 95 0 0.0
30 09:55 S 8 0.00 Showers in Vicinity SCT021 SCT300 86 75.2 70% 95 0 0.0
30 08:55 SE 6 0.00 Showers in Vicinity SCT022TCU SCT300 84.2 75.2 74% 92 0 0.0
30 07:55 S 5 0.00 Showers in Vicinity SCT022 SCT300 84.2 75.2 74% 92 0 0.0
30 06:55 S 5 0.00 Partly Cloudy SCT022 82.4 75.2 79% 89 0 0.0
30 05:55 S 6 0.00 A Few Clouds FEW021 82.4 75.2 79% 89 0 0.0
30 04:55 S 7 0.00 A Few Clouds FEW021 82.4 75.2 79% 89 0 0.0
30 03:55 S 7 0.00 A Few Clouds FEW021 82.4 73.4 74% 88 0 0.0
30 02:55 S 7 0.00 Showers in Vicinity FEW021 82.4 75.2 79% 89 0 0.0
30 01:55 SE 8 0.00 A Few Clouds FEW023 FEW300 82.4 75.2 79% 89 0 0.0
30 00:55 SE 8 0.00 A Few Clouds FEW022 82.4 75.2 79% 89 0 0.0
29 23:55 SE 10 0.00 Showers in Vicinity FEW021 84.2 75.2 74% 92 0 0.0
29 22:55 SE 9 0.00 A Few Clouds FEW023 84.2 75.2 74% 92 0 0.0
29 21:55 SE 9 0.00 A Few Clouds FEW022 84.2 75.2 74% 92 0 0.0
29 20:55 SE 8 0.00 A Few Clouds FEW023 84.2 75.2 74% 92 0 0.0
29 19:55 SE 7 0.00 A Few Clouds FEW021 84.2 77 79% 94 0 0.0
29 18:55 SE 6 0.00 A Few Clouds FEW022 86 75.2 70% 95 0 0.0
29 17:55 S 6 0.00 A Few Clouds FEW024 86 75.2 70% 95 0 0.0
29 16:55 S 7 0.00 A Few Clouds FEW023 86 75.2 70% 95 0 0.0
29 15:55 S 8 0.00 A Few Clouds FEW024 87.8 75.2 66% 98 0 0.0
29 14:55 S 8 0.00 A Few Clouds FEW025 87.8 77 70% 100 0 0.0
29 13:55 S 9 0.00 A Few Clouds FEW024 FEW300 87.8 75.2 66% 98 0 0.0
29 12:55 S 8 0.00 A Few Clouds FEW024 FEW073 87.8 77 70% 100 0 0.0
29 11:55 S 9 0.00 Showers in Vicinity FEW022 SCT071 87.8 77 70% 100 0 0.0
29 10:55 S 8 0.00 Light Showers Rain BKN021TCU BKN053 84.2 77 79% 94 0 0.0
29 09:55 S 9 0.00 Showers in Vicinity FEW021TCU FEW073 86 77 75% 97 0 0.0
29 08:55 S 6 0.00 Showers in Vicinity FEW023 SCT074 BKN300 84.2 77 79% 94 0 0.0
29 07:55 SE 9 0.00 Showers in Vicinity SCT019TCU BKN040 BKN300 80.6 75.2 84% 86 0 0.0
29 06:55 S 10 0.00 Showers in Vicinity SCT019TCU 82.4 77 84% 91 0 0.0
29 05:55 S 9 0.00 Showers in Vicinity FEW018TCU 82.4 75.2 79% 89 0 0.0
29 04:55 S 9 0.00 A Few Clouds FEW018 82.4 77 84% 91 0 0.0
29 03:55 S 10 0.00 Showers in Vicinity FEW016 82.4 75.2 79% 89 0 0.0
29 02:55 S 9 0.00 Showers in Vicinity FEW017 82.4 77 84% 91 0 0.0
29 01:55 S 10 0.00 Showers in Vicinity FEW016 84.2 77 79% 94 0 0.0
29 00:55 S 9 0.00 Showers in Vicinity FEW018 84.2 77 79% 94 0 0.0
28 23:55 S 8 0.00 Showers in Vicinity FEW019 84.2 77 79% 94 0 0.0
28 22:55 S 5 0.00 Showers in Vicinity FEW020TCU 82.4 77 84% 91 0 0.0
28 21:55 S 8 0.00 Showers in Vicinity SCT018 82.4 75.2 79% 89 0 0.0
28 20:55 S 8 0.00 Showers in Vicinity FEW017 84.2 77 79% 94 0 0.0
28 19:55 S 8 0.00 A Few Clouds FEW019 FEW300 84.2 77 79% 94 0 0.0
28 18:55 S 9 0.00 A Few Clouds FEW020 FEW300 84.2 77 79% 94 0 0.0
28 17:55 S 10 0.00 Partly Cloudy FEW020 SCT300 86 77 75% 97 0 0.0
28 16:55 S 12 0.00 Showers in Vicinity FEW020CB 86 75.2 70% 95 0 0.0
28 15:55 S 10 0.00 Partly Cloudy SCT021 SCT036 87.8 77 70% 100 0 0.0
28 14:55 S 10 0.00 Showers in Vicinity SCT022 SCT075 87.8 78.8 75% 102 0 0.0
28 13:55 S 9 0.00 Showers in Vicinity SCT021 BKN065 86 77 75% 97 0 0.0
28 12:55 S 10 0.00 Showers in Vicinity SCT021TCU 87.8 78.8 75% 102 0 0.0
28 11:55 S 12 0.00 Showers in Vicinity FEW020 87.8 77 70% 100 0 0.0
28 10:55 S 13 0.00 A Few Clouds FEW021 86 77 75% 97 0 0.0
28 09:55 S 12 0.00 Showers in Vicinity SCT021 84.2 77 79% 94 0 0.0
28 08:55 S 12 0.00 Showers in Vicinity SCT019TCU 84.2 75.2 74% 92 0 0.0
28 07:55 SE 9 0.00 Showers in Vicinity SCT021 84.2 77 79% 94 0 0.0
Date Time (adt) Wind (mph) Vis. (mi.) Weather Sky Cond. Air Dwpt Max. Min. Relative Humidity Wind Chill (°F) Heat Index (°F) altimeter (in) sea level (mb) 1 hr 3 hr 6 hr
6 hour
Temperature (ºF) Pressure Precipitation (in)